パンスターズ彗星

C/2014 W10 ( PanSTARRS )

English version
Home page
Updated on November 14, 2016

---------------------------------------------------------------------

・ プロフィール

発見日 2014年11月25日
発見光度 21.2等
発見者 Pan-STARRS 1 telescope (Haleakala)

・ 軌道要素

T 2014 Feb. 6.75745 TT                                  MPCW
q   7.9952199            (2000.0)            P               Q
                   Peri.  356.23188     +0.72548961     -0.01117805
                   Node    43.68179     +0.65462350     -0.29743337
e   1.0            Incl.   85.11344     +0.21244505     +0.95467714
From 17 observations 2014 Nov. 25-Dec. 22.

・ 光度変化

        m1 = 7.0 + 5 logΔ + 10.0 log r

---------------------------------------------------------------------

軌道要素はM.P.E.C. 2016-U66に掲載されたものです。
光度グラフはComet for Windowsで作成したものです。

---------------------------------------------------------------------

Copyright(C) Seiichi Yoshida (comet@aerith.net). All rights reserved.